Simultaneous Nadir Overpasses (SNOs) Predictions

Prediction of SNOs between GOES-17 and METOP-C Satellite Orbit:

Table of predicted SNOs for the next 14.0 days since TLE Epoch: 10/1/2022
Index Date Time (GOES-17) GOES-17 Lat,Lon METOP-C Lat,Lon Distance(km) Time Diff (sec)
1 10/02/2022 06:55:05 0.06,-137.32 -0.89,-141.47 473.67 80
2 10/03/2022 06:37:05 0.06,-137.30 0.22,-136.47 94.23 80
3 10/04/2022 18:53:14 -0.06,-137.28 0.77,-141.03 427.28 80
4 10/05/2022 18:35:14 -0.05,-137.26 -0.34,-136.03 140.43 80
5 10/07/2022 06:54:13 0.05,-137.24 -0.70,-140.63 386.33 80
6 10/08/2022 06:33:33 0.05,-137.22 0.42,-135.63 181.26 80
7 10/09/2022 18:49:41 -0.05,-137.19 0.63,-140.18 340.63 80
8 10/10/2022 18:31:40 -0.05,-137.17 -0.49,-135.18 226.79 80
9 10/12/2022 06:48:00 0.05,-137.14 -0.54,-139.78 300.50 80
10 10/13/2022 06:29:59 0.05,-137.12 0.59,-134.78 266.50 80
11 10/14/2022 18:46:07 -0.05,-137.08 0.46,-139.33 256.66 80
